Bethany Beach, DE-NGTS DE USA current weather conditions

sailwx.info

Wind from 047 at 5 knots gusting 8

Air temperature 7.9° C
Dewpoint 7.6° C

Last reported at 2020-Feb-26 16:05 UTC.
Time now 2020-Feb-26 17:01 UTC

Location: N 38°33' W 075°04'.
View on Google Maps.

See reports from other nearby stations

  
Tides and Currents Weather Stations Pressure Air Temp Water Temp Dewpoint Dewpoint Depression Visibility Wind Speed Wind Dir Waves Ship Positions
date/time (UTC)wind fromknots sea level pressurealtimeterstation pressurevisibilityair tempwater tempwave heightnotes
2020-Feb-26 16:05 047 5 gusting 8 7.9
2020-Feb-26 16:00 049 4 gusting 7 7.8
2020-Feb-26 15:55 053 4 gusting 8 7.7
2020-Feb-26 15:50 046 5 gusting 8 7.7
2020-Feb-26 15:45 044 4 gusting 6 7.8
2020-Feb-26 15:40 053 4 gusting 6 7.7
2020-Feb-26 15:35 047 3 gusting 6 7.8
2020-Feb-26 15:30 070 4 gusting 7 7.6
2020-Feb-26 15:25 062 4 gusting 7 7.6
2020-Feb-26 15:20 063 4 gusting 7 7.6
2020-Feb-26 15:15 067 4 gusting 7 7.6
2020-Feb-26 15:10 074 3 gusting 5 7.7
2020-Feb-26 15:05 073 4 gusting 6 7.7
2020-Feb-26 15:00 067 3 gusting 5 7.9
2020-Feb-26 14:55 075 4 gusting 6 7.6
2020-Feb-26 14:50 096 3 gusting 6 7.8
2020-Feb-26 14:45 090 3 gusting 5 7.7
2020-Feb-26 14:40 116 2 gusting 5 7.6
2020-Feb-26 14:35 114 2 gusting 5 7.8
2020-Feb-26 14:30 117 2 gusting 4 7.7
2020-Feb-26 14:25 135 3 gusting 5 7.7
2020-Feb-26 14:20 128 3 gusting 6 7.6
2020-Feb-26 14:15 122 3 gusting 5 7.7
2020-Feb-26 14:10 125 4 gusting 6 7.6
2020-Feb-26 14:05 131 4 gusting 6 7.6
2020-Feb-26 14:00 133 4 gusting 7 7.5
2020-Feb-26 13:55 130 4 gusting 6 7.5
2020-Feb-26 13:50 136 4 gusting 6 7.4
2020-Feb-26 13:45 133 5 gusting 7 7.3
2020-Feb-26 13:40 131 3 gusting 5 7.3
2020-Feb-26 13:35 124 2 gusting 4 7.3
2020-Feb-26 13:30 107 2 gusting 3 7.2
2020-Feb-26 13:25 095 1 gusting 4 7.2
2020-Feb-26 13:20 091 1 gusting 3 7.2
2020-Feb-26 13:15 073 1 gusting 3 7.1
2020-Feb-26 13:10 080 1 gusting 2 7.1
2020-Feb-26 13:05 087 1 gusting 2 7.0
2020-Feb-26 13:00 074 2 gusting 3 7.0
2020-Feb-26 12:55 085 2 gusting 4 7.1
2020-Feb-26 12:50 098 2 gusting 5 7.0
2020-Feb-26 12:45 075 3 gusting 5 7.0
2020-Feb-26 12:40 070 3 gusting 4 7.0
2020-Feb-26 12:35 069 1 gusting 3 7.0
2020-Feb-26 12:30 067 0 gusting 1 6.9
2020-Feb-26 12:25 067 0 gusting 1 6.9
2020-Feb-26 12:20 094 0 gusting 1 6.9
2020-Feb-26 12:15 134 0 gusting 1 6.9
2020-Feb-26 12:10 095 1 gusting 2 6.9
2020-Feb-26 12:05 087 2 gusting 3 6.9
2020-Feb-26 12:00 095 3 gusting 5 6.9
2020-Feb-26 11:55 109 1 gusting 4 6.9
2020-Feb-26 11:50 086 1 gusting 3 6.9
2020-Feb-26 11:45 134 1 gusting 2 6.9
2020-Feb-26 11:40 138 0 gusting 2 6.9
2020-Feb-26 11:35 126 0 gusting 1 6.9
2020-Feb-26 11:30 152 0 gusting 1 6.9
2020-Feb-26 11:25 167 0 gusting 1 6.9
2020-Feb-26 11:20 094 0 gusting 1 7.0
2020-Feb-26 11:15 112 0 gusting 2 7.0
2020-Feb-26 11:10 117 1 gusting 2 7.0
2020-Feb-26 11:05 120 1 gusting 2 7.0
2020-Feb-26 11:00 101 1 gusting 3 7.0
2020-Feb-26 10:55 074 2 gusting 4 7.0
2020-Feb-26 10:50 065 1 gusting 4 7.1
2020-Feb-26 10:45 055 1 gusting 3 7.1
2020-Feb-26 10:40 064 2 gusting 4 7.1
2020-Feb-26 10:35 058 3 gusting 5 7.1
2020-Feb-26 10:30 066 2 gusting 4 7.1
2020-Feb-26 10:25 066 3 gusting 5 7.1
2020-Feb-26 10:20 073 2 gusting 5 7.1
2020-Feb-26 10:15 075 2 gusting 4 7.2
2020-Feb-26 10:10 070 3 gusting 5 7.2
2020-Feb-26 10:05 067 3 gusting 5 7.2
2020-Feb-26 10:00 066 3 gusting 6 7.2
2020-Feb-26 09:55 052 3 gusting 5 7.2
2020-Feb-26 09:50 049 3 gusting 5 7.2
2020-Feb-26 09:45 061 2 gusting 3 7.2
2020-Feb-26 09:40 068 2 gusting 4 7.3
2020-Feb-26 09:35 058 2 gusting 4 7.3
2020-Feb-26 09:30 057 2 gusting 4 7.3
2020-Feb-26 09:25 047 2 gusting 4 7.3
2020-Feb-26 09:20 054 2 gusting 4 7.4
2020-Feb-26 09:15 052 2 gusting 4 7.4
2020-Feb-26 09:10 047 2 gusting 4 7.4
2020-Feb-26 09:05 045 2 gusting 4 7.4
2020-Feb-26 09:00 037 2 gusting 4 7.4
2020-Feb-26 08:55 038 2 gusting 3 7.4
2020-Feb-26 08:50 037 2 gusting 3 7.4
2020-Feb-26 08:45 038 1 gusting 3 7.4
2020-Feb-26 08:40 033 2 gusting 5 7.4
2020-Feb-26 08:35 041 2 gusting 3 7.4
2020-Feb-26 08:30 043 2 gusting 4 7.4
2020-Feb-26 08:25 036 1 gusting 3 7.5
2020-Feb-26 08:20 044 2 gusting 4 7.5
2020-Feb-26 08:15 041 2 gusting 3 7.5
2020-Feb-26 08:10 041 2 gusting 3 7.5
2020-Feb-26 08:05 042 2 gusting 3 7.6
2020-Feb-26 08:00 043 2 gusting 3 7.6
2020-Feb-26 07:55 046 2 gusting 3 7.6
2020-Feb-26 07:50 046 2 gusting 3 7.7
2020-Feb-26 07:45 048 3 gusting 5 7.8
2020-Feb-26 07:40 045 3 gusting 4 8.0
2020-Feb-26 07:35 047 3 gusting 6 8.1
2020-Feb-26 07:30 041 2 gusting 5 8.2
2020-Feb-26 07:25 044 3 gusting 5 8.2
2020-Feb-26 07:20 038 2 gusting 5 8.3
2020-Feb-26 07:00 042 3 gusting 5 8.6
2020-Feb-26 06:55 037 1 gusting 3 8.6
2020-Feb-26 06:50 030 1 gusting 5 8.6
2020-Feb-26 06:45 040 1 gusting 5 8.7
2020-Feb-26 06:40 033 1 gusting 2 8.7
2020-Feb-26 06:35 027 1 gusting 4 8.8
2020-Feb-26 06:30 025 1 gusting 3 8.8
2020-Feb-26 06:25 027 1 gusting 4 8.9
2020-Feb-26 06:20 025 1 gusting 3 9.0
2020-Feb-26 06:15 029 1 gusting 4 9.1
2020-Feb-26 06:10 030 1 gusting 3 9.1
2020-Feb-26 06:05 039 1 gusting 2 9.0
2020-Feb-26 06:00 043 0 gusting 2 9.0
2020-Feb-26 05:55 042 0 gusting 1 9.0
2020-Feb-26 05:50 041 0 gusting 2 9.0
2020-Feb-26 05:45 033 0 gusting 1 9.1
2020-Feb-26 05:40 028 0 gusting 2 9.3
2020-Feb-26 05:35 032 0 gusting 1 9.5
2020-Feb-26 05:30 033 1 gusting 2 9.6
2020-Feb-26 05:25 029 0 gusting 1 9.8
2020-Feb-26 05:20 343 0 gusting 0 9.7
2020-Feb-26 05:15 9.6
2020-Feb-26 05:10 308 0 gusting 0 9.7
2020-Feb-26 05:05 308 0 gusting 0 9.7
2020-Feb-26 05:00 9.6
2020-Feb-26 04:55 314 0 gusting 0 9.6
2020-Feb-26 04:50 314 0 gusting 0 9.6
2020-Feb-26 04:45 9.5
2020-Feb-26 04:40 9.3
2020-Feb-26 04:35 9.5
2020-Feb-26 04:30 9.5
2020-Feb-26 04:25 9.4
2020-Feb-26 04:20 9.4
2020-Feb-26 04:15 9.6
2020-Feb-26 04:10 314 0 gusting 0 9.6
2020-Feb-26 04:05 9.6
2020-Feb-26 04:00 9.5
2020-Feb-26 03:55 9.4
2020-Feb-26 03:50 314 0 gusting 0 9.5
2020-Feb-26 03:45 314 0 gusting 0 9.4
2020-Feb-26 03:40 311 0 gusting 0 9.4
2020-Feb-26 03:35 310 0 gusting 0 9.5
2020-Feb-26 03:30 311 0 gusting 1 9.4
2020-Feb-26 03:25 311 0 gusting 1 9.5
2020-Feb-26 03:20 312 0 gusting 1 9.6
2020-Feb-26 03:15 312 0 gusting 1 9.5
2020-Feb-26 03:10 316 0 gusting 1 9.4
2020-Feb-26 03:05 313 0 gusting 0 9.4
2020-Feb-26 03:00 312 0 gusting 1 9.5
2020-Feb-26 02:55 330 0 gusting 1 9.6
2020-Feb-26 02:50 332 0 gusting 1 9.8
2020-Feb-26 02:45 331 0 gusting 1 9.8
2020-Feb-26 02:40 337 0 gusting 1 9.8
2020-Feb-26 02:35 337 0 gusting 0 9.7
2020-Feb-26 02:30 336 0 gusting 1 9.8
2020-Feb-26 02:25 041 0 gusting 0 10.0
2020-Feb-26 02:20 051 0 gusting 1 10.0
2020-Feb-26 02:15 9.8
2020-Feb-26 02:10 9.5
2020-Feb-26 02:05 9.4
2020-Feb-26 02:00 078 0 gusting 0 9.3
2020-Feb-26 01:55 078 0 gusting 0 9.3
2020-Feb-26 01:50 078 0 gusting 0 9.4
2020-Feb-26 01:45 074 1 gusting 1 9.5
2020-Feb-26 01:40 054 1 gusting 2 9.9
2020-Feb-26 01:35 039 1 gusting 2 10.0
2020-Feb-26 01:30 043 2 gusting 3 10.0
2020-Feb-26 01:25 052 1 gusting 2 9.7
2020-Feb-26 01:20 057 0 gusting 1 9.5
2020-Feb-26 01:15 050 1 gusting 2 9.5
2020-Feb-26 01:10 051 0 gusting 1 10.0
2020-Feb-26 01:05 053 1 gusting 2 10.1
2020-Feb-26 01:00 049 0 gusting 1 10.2
2020-Feb-26 00:55 036 0 gusting 2 10.4
2020-Feb-26 00:50 311 0 gusting 0 10.7
2020-Feb-26 00:45 308 0 gusting 0 10.8
2020-Feb-26 00:40 10.9
2020-Feb-26 00:35 11.0
2020-Feb-26 00:30 11.1
2020-Feb-26 00:25 11.1
2020-Feb-26 00:20 11.1
2020-Feb-26 00:15 11.1
2020-Feb-26 00:10 11.1
2020-Feb-26 00:05 11.1
2020-Feb-26 00:00 11.1
2020-Feb-25 23:55 11.0
2020-Feb-25 23:50 11.0
2020-Feb-25 23:45 306 0 gusting 0 10.9
2020-Feb-25 23:40 306 0 gusting 0 10.8
2020-Feb-25 23:35 306 0 gusting 0 10.8
2020-Feb-25 23:30 306 0 gusting 0 10.6
2020-Feb-25 23:25 306 0 gusting 1 10.6
2020-Feb-25 23:20 288 0 gusting 1 10.6
2020-Feb-25 23:15 284 0 gusting 0 10.6
2020-Feb-25 23:10 278 0 gusting 0 10.7
2020-Feb-25 23:05 249 0 gusting 1 10.6
2020-Feb-25 23:00 246 1 gusting 2 10.6
2020-Feb-25 22:55 243 1 gusting 2 10.6
2020-Feb-25 22:50 239 0 gusting 1 10.6
2020-Feb-25 22:45 212 0 gusting 0 10.6
2020-Feb-25 22:40 206 0 gusting 0 10.6
2020-Feb-25 22:35 205 0 gusting 2 10.6
2020-Feb-25 22:30 216 0 gusting 2 10.6
2020-Feb-25 22:25 215 0 gusting 2 10.6
2020-Feb-25 22:20 200 1 gusting 2 10.6
2020-Feb-25 22:15 203 1 gusting 3 10.7
2020-Feb-25 22:10 213 0 gusting 2 10.7
2020-Feb-25 22:05 211 0 gusting 2 10.8
2020-Feb-25 22:00 233 1 gusting 3 10.8
2020-Feb-25 21:55 223 1 gusting 4 10.9
2020-Feb-25 21:50 203 2 gusting 4 11.0
2020-Feb-25 21:45 217 1 gusting 4 11.2
2020-Feb-25 21:40 217 1 gusting 2 11.2
2020-Feb-25 21:35 226 1 gusting 3 11.2
2020-Feb-25 21:30 208 1 gusting 3 11.2
2020-Feb-25 21:25 217 1 gusting 4 11.3
2020-Feb-25 21:20 207 2 gusting 5 11.1
2020-Feb-25 21:15 184 3 gusting 4 10.8
2020-Feb-25 21:10 169 3 gusting 4 10.8
2020-Feb-25 21:05 179 2 gusting 3 11.0
2020-Feb-25 21:00 183 3 gusting 4 11.0
2020-Feb-25 20:55 189 3 gusting 5 10.9
2020-Feb-25 20:50 201 2 gusting 5 10.9
2020-Feb-25 20:45 203 2 gusting 4 10.9
2020-Feb-25 20:40 212 1 gusting 4 10.7
2020-Feb-25 20:35 179 2 gusting 4 10.7
2020-Feb-25 20:30 172 2 gusting 4 10.8
2020-Feb-25 20:25 188 3 gusting 4 10.7
2020-Feb-25 20:20 189 2 gusting 3 10.7
2020-Feb-25 20:15 213 0 gusting 2 10.7
2020-Feb-25 20:10 222 0 gusting 2 10.6
2020-Feb-25 20:05 186 0 gusting 2 10.3
2020-Feb-25 20:00 184 0 gusting 2 10.2
2020-Feb-25 19:55 181 0 gusting 1 10.3
2020-Feb-25 19:50 170 0 gusting 1 10.2
2020-Feb-25 19:45 170 1 gusting 2 10.2
2020-Feb-25 19:40 164 0 gusting 1 10.0
2020-Feb-25 19:35 147 1 gusting 1 10.0
2020-Feb-25 19:30 158 2 gusting 3 10.2
2020-Feb-25 19:25 189 3 gusting 4 10.3
2020-Feb-25 19:20 190 3 gusting 4 10.3
2020-Feb-25 19:15 189 2 gusting 3 10.2
2020-Feb-25 19:10 190 2 gusting 3 10.2
2020-Feb-25 19:05 184 2 gusting 3 10.1
2020-Feb-25 19:00 190 2 gusting 4 9.9
2020-Feb-25 18:55 203 1 gusting 3 10.0
2020-Feb-25 18:50 210 1 gusting 3 9.9
2020-Feb-25 18:45 214 1 gusting 3 9.8
2020-Feb-25 18:40 241 1 gusting 2 9.7
2020-Feb-25 18:35 214 2 gusting 4 9.8
2020-Feb-25 18:30 222 1 gusting 4 9.6
2020-Feb-25 18:25 202 2 gusting 5 9.6
2020-Feb-25 18:20 210 1 gusting 3 9.6
2020-Feb-25 18:15 193 3 gusting 5 9.7
2020-Feb-25 18:10 187 2 gusting 4 9.6
2020-Feb-25 18:05 188 3 gusting 6 9.5
2020-Feb-25 18:00 193 4 gusting 6 9.5
2020-Feb-25 17:55 184 6 gusting 8 9.8
2020-Feb-25 17:50 181 5 gusting 8 9.9
2020-Feb-25 17:45 179 5 gusting 7 10.0
2020-Feb-25 17:40 181 4 gusting 6 10.2
2020-Feb-25 17:35 191 3 gusting 5 10.0
2020-Feb-25 17:30 202 3 gusting 6 9.9
2020-Feb-25 17:25 200 4 gusting 7 9.6
2020-Feb-25 17:20 193 5 gusting 8 9.6
2020-Feb-25 17:15 197 4 gusting 8 9.5
2020-Feb-25 17:10 194 4 gusting 7 9.3
2020-Feb-25 17:05 199 3 gusting 6 9.3
2020-Feb-25 17:00 196 2 gusting 5 9.1
2020-Feb-25 16:55 192 3 gusting 6 8.9
2020-Feb-25 16:50 193 3 gusting 5 8.7
2020-Feb-25 16:45 187 4 gusting 6 8.5
2020-Feb-25 16:40 197 3 gusting 6 8.4
2020-Feb-25 16:35 198 5 gusting 8 8.4
2020-Feb-25 16:30 187 5 gusting 8 8.4
2020-Feb-25 16:25 182 5 gusting 6 8.3
2020-Feb-25 16:20 183 4 gusting 6 8.2
2020-Feb-25 16:15 190 4 gusting 6 8.2
2020-Feb-25 16:10 188 4 gusting 5 8.2
2020-Feb-25 16:05 183 4 gusting 6 8.2
2020-Feb-25 16:00 178 4 gusting 6 8.1
2020-Feb-25 15:55 177 5 gusting 6 7.9
2020-Feb-25 15:50 177 4 gusting 7 7.9
2020-Feb-25 15:45 172 4 gusting 7 7.9
2020-Feb-25 15:40 171 5 gusting 7 7.7
2020-Feb-25 15:35 175 5 gusting 8 7.8
2020-Feb-25 15:30 173 4 gusting 6 7.7
2020-Feb-25 15:25 173 5 gusting 7 7.6
2020-Feb-25 15:20 178 4 gusting 6 7.6
2020-Feb-25 15:15 172 5 gusting 6 7.5
2020-Feb-25 15:10 171 4 gusting 6 7.4
2020-Feb-25 15:05 174 5 gusting 7 7.5
2020-Feb-25 15:00 171 6 gusting 8 7.5
2020-Feb-25 14:55 171 5 gusting 8 7.6
2020-Feb-25 14:50 176 4 gusting 6 7.6
2020-Feb-25 14:45 171 4 gusting 6 7.7
2020-Feb-25 14:40 178 4 gusting 6 7.7
2020-Feb-25 14:35 181 5 gusting 8 7.7
2020-Feb-25 14:30 178 4 gusting 6 7.8
2020-Feb-25 14:25 189 3 gusting 5 7.8
2020-Feb-25 14:20 190 4 gusting 5 7.8
2020-Feb-25 14:15 187 4 gusting 6 7.8
2020-Feb-25 14:10 191 3 gusting 4 7.8
2020-Feb-25 14:05 189 4 gusting 6 7.7
2020-Feb-25 14:00 193 2 gusting 3 7.6
2020-Feb-25 13:55 190 2 gusting 4 7.5
2020-Feb-25 13:50 186 3 gusting 5 7.4
2020-Feb-25 13:45 174 3 gusting 5 7.4
2020-Feb-25 13:40 174 3 gusting 4 7.4
2020-Feb-25 13:35 177 2 gusting 3 7.4
2020-Feb-25 13:30 178 2 gusting 4 7.5
2020-Feb-25 13:25 161 2 gusting 2 7.4
2020-Feb-25 13:20 159 2 gusting 3 7.4
2020-Feb-25 13:15 162 1 gusting 2 7.4
2020-Feb-25 13:10 162 2 gusting 3 7.4
2020-Feb-25 13:05 161 2 gusting 2 7.4
2020-Feb-25 13:00 160 2 gusting 2 7.4
2020-Feb-25 12:55 154 1 gusting 2 7.4
2020-Feb-25 12:50 157 1 gusting 2 7.5
2020-Feb-25 12:45 153 1 gusting 2 7.5
2020-Feb-25 12:40 157 1 gusting 2 7.5
2020-Feb-25 12:35 158 1 gusting 2 7.6
2020-Feb-25 12:30 160 1 gusting 1 7.5
2020-Feb-25 12:25 158 1 gusting 2 7.5
2020-Feb-25 12:20 140 1 gusting 2 7.5
2020-Feb-25 12:15 144 1 gusting 1 7.7
2020-Feb-25 12:10 171 0 gusting 1 7.9
2020-Feb-25 12:05 7.9
2020-Feb-25 12:00 7.9
2020-Feb-25 11:55 197 0 gusting 0 7.8
2020-Feb-25 11:50 198 0 gusting 1 7.8
2020-Feb-25 11:45 197 0 gusting 2 7.8
2020-Feb-25 11:40 204 0 gusting 1 7.8
2020-Feb-25 11:35 197 1 gusting 2 7.8
2020-Feb-25 11:30 203 0 gusting 1 7.8
2020-Feb-25 11:25 199 0 gusting 1 7.8
2020-Feb-25 11:20 202 1 gusting 2 7.8
2020-Feb-25 11:15 197 1 gusting 2 7.9
2020-Feb-25 11:10 196 1 gusting 2 7.8
2020-Feb-25 11:05 199 1 gusting 2 7.8
2020-Feb-25 11:00 203 1 gusting 1 7.8
2020-Feb-25 10:55 213 0 gusting 2 7.8
2020-Feb-25 10:50 203 1 gusting 3 7.8
2020-Feb-25 10:45 221 0 gusting 2 7.9
2020-Feb-25 10:40 215 0 gusting 2 7.8
2020-Feb-25 10:35 207 1 gusting 2 7.9
2020-Feb-25 10:30 203 0 gusting 1 7.8
2020-Feb-25 10:25 214 0 gusting 2 7.9
2020-Feb-25 10:20 204 0 gusting 1 7.8
2020-Feb-25 10:15 205 0 gusting 1 7.9
2020-Feb-25 10:10 205 0 gusting 1 7.8
2020-Feb-25 10:05 210 0 gusting 1 7.9
2020-Feb-25 10:00 223 0 gusting 1 7.8
2020-Feb-25 09:55 237 0 gusting 1 7.8
2020-Feb-25 09:50 231 0 gusting 1 7.8
2020-Feb-25 09:45 232 0 gusting 1 7.8
2020-Feb-25 09:40 245 0 gusting 1 7.9
2020-Feb-25 09:35 264 0 gusting 1 7.8
2020-Feb-25 09:30 268 0 gusting 0 7.8
2020-Feb-25 09:25 271 0 gusting 1 7.8
2020-Feb-25 09:20 294 0 gusting 0 7.8
2020-Feb-25 09:15 298 0 gusting 1 7.8
2020-Feb-25 09:10 276 0 gusting 0 7.8
2020-Feb-25 09:05 299 0 gusting 0 7.8
2020-Feb-25 09:00 279 0 gusting 2 7.8
2020-Feb-25 08:55 293 0 gusting 1 7.8
2020-Feb-25 08:50 290 0 gusting 1 7.8
2020-Feb-25 08:45 272 0 gusting 1 7.8
2020-Feb-25 08:40 266 0 gusting 3 7.8
2020-Feb-25 08:35 270 0 gusting 2 7.7
2020-Feb-25 08:30 287 0 gusting 2 7.7
2020-Feb-25 08:25 282 0 gusting 2 7.7
2020-Feb-25 08:20 281 0 gusting 2 7.7
2020-Feb-25 08:15 276 0 gusting 2 7.7
2020-Feb-25 08:10 286 0 gusting 2 7.7
2020-Feb-25 08:05 272 0 gusting 3 7.7
2020-Feb-25 08:00 259 0 gusting 1 7.7
2020-Feb-25 07:55 256 1 gusting 3 7.7
2020-Feb-25 07:50 251 1 gusting 3 7.8
2020-Feb-25 07:45 254 1 gusting 3 7.7
2020-Feb-25 07:40 249 1 gusting 3 7.8
2020-Feb-25 07:35 256 1 gusting 4 7.8
2020-Feb-25 07:30 250 1 gusting 3 7.8
2020-Feb-25 07:25 248 0 gusting 3 7.7
2020-Feb-25 07:20 248 1 gusting 3 7.7
2020-Feb-25 07:15 244 1 gusting 2 7.8
2020-Feb-25 07:10 236 0 gusting 1 7.7
2020-Feb-25 07:05 232 0 gusting 1 7.8
2020-Feb-25 07:00 234 0 gusting 0 7.8
2020-Feb-25 06:55 239 0 gusting 1 7.8
2020-Feb-25 06:50 245 0 gusting 1 7.8
2020-Feb-25 06:45 246 0 gusting 1 7.8
2020-Feb-25 06:40 230 0 gusting 1 7.8
2020-Feb-25 06:35 203 0 gusting 1 7.8
2020-Feb-25 06:30 222 0 gusting 1 7.9
2020-Feb-25 06:25 226 0 gusting 0 7.8
2020-Feb-25 06:20 237 0 gusting 0 7.9
2020-Feb-25 06:15 241 0 gusting 1 7.9
2020-Feb-25 06:10 238 0 gusting 1 7.9
2020-Feb-25 06:05 215 1 gusting 2 7.9
2020-Feb-25 06:00 230 0 gusting 3 7.9
2020-Feb-25 05:55 237 1 gusting 2 7.9
2020-Feb-25 05:50 245 1 gusting 2 7.9
2020-Feb-25 05:45 212 1 gusting 4 7.9
2020-Feb-25 05:40 209 2 gusting 4 7.9
2020-Feb-25 05:35 218 1 gusting 3 7.9
2020-Feb-25 05:30 204 2 gusting 4 7.9
2020-Feb-25 05:25 203 2 gusting 4 7.9
2020-Feb-25 05:20 193 2 gusting 4 7.9
2020-Feb-25 05:15 183 1 gusting 3 8.0
2020-Feb-25 05:10 179 1 gusting 2 8.1
2020-Feb-25 05:05 198 2 gusting 4 8.2
2020-Feb-25 05:00 201 2 gusting 4 8.3
2020-Feb-25 04:55 194 1 gusting 3 8.3
2020-Feb-25 04:50 228 0 gusting 2 8.3
2020-Feb-25 04:45 242 0 gusting 2 8.4
2020-Feb-25 04:40 231 0 gusting 2 8.4
2020-Feb-25 04:35 228 0 gusting 1 8.4
2020-Feb-25 04:30 241 0 gusting 1 8.4
2020-Feb-25 04:25 212 1 gusting 2 8.5
2020-Feb-25 04:20 237 1 gusting 2 8.5
2020-Feb-25 04:15 235 1 gusting 3 8.5
2020-Feb-25 04:10 243 1 gusting 4 8.5
2020-Feb-25 04:05 241 1 gusting 3 8.5
2020-Feb-25 04:00 245 1 gusting 3 8.6
2020-Feb-25 03:55 250 1 gusting 2 8.6
2020-Feb-25 03:50 242 1 gusting 3 8.6
2020-Feb-25 03:45 235 1 gusting 3 8.6
2020-Feb-25 03:40 243 2 gusting 4 8.6
2020-Feb-25 03:35 242 1 gusting 4 8.6
2020-Feb-25 03:30 234 2 gusting 4 8.6
2020-Feb-25 03:25 251 2 gusting 5 8.6
2020-Feb-25 03:20 247 1 gusting 3 8.6
2020-Feb-25 03:15 241 1 gusting 4 8.6
2020-Feb-25 03:10 265 0 gusting 2 8.5
2020-Feb-25 03:05 264 0 gusting 4 8.5
2020-Feb-25 03:00 265 1 gusting 3 8.5
2020-Feb-25 02:55 243 2 gusting 4 8.5
2020-Feb-25 02:50 247 2 gusting 6 8.5
2020-Feb-25 02:45 244 3 gusting 5 8.5
2020-Feb-25 02:40 244 3 gusting 5 8.5
2020-Feb-25 02:35 240 2 gusting 4 8.5
2020-Feb-25 02:30 245 3 gusting 9 8.5
2020-Feb-25 02:25 242 3 gusting 8 8.5
2020-Feb-25 02:20 246 3 gusting 6 8.5
2020-Feb-25 02:15 242 3 gusting 7 8.4
2020-Feb-25 02:10 242 4 gusting 7 8.4
2020-Feb-25 02:05 245 3 gusting 6 8.4
2020-Feb-25 02:00 242 4 gusting 8 8.3
2020-Feb-25 01:55 243 3 gusting 6 8.3
2020-Feb-25 01:50 245 3 gusting 7 8.3
2020-Feb-25 01:45 235 2 gusting 7 8.3
2020-Feb-25 01:40 234 4 gusting 11 8.4
2020-Feb-25 01:35 241 3 gusting 7 8.5
2020-Feb-25 01:30 247 3 gusting 6 8.6
2020-Feb-25 01:25 239 4 gusting 8 8.7
2020-Feb-25 01:20 236 4 gusting 9 8.8
2020-Feb-25 01:15 236 4 gusting 9 8.9
2020-Feb-25 01:10 241 4 gusting 7 8.9
2020-Feb-25 01:05 242 4 gusting 7 8.9
2020-Feb-25 01:00 242 3 gusting 7 9.0
2020-Feb-25 00:55 238 4 gusting 9 9.1
2020-Feb-25 00:50 242 4 gusting 8 9.1
2020-Feb-25 00:45 233 2 gusting 6 9.1
2020-Feb-25 00:40 238 3 gusting 7 9.1
2020-Feb-25 00:35 236 4 gusting 8 9.2
2020-Feb-25 00:30 235 3 gusting 7 9.2
2020-Feb-25 00:25 233 3 gusting 9 9.2
2020-Feb-25 00:20 223 3 gusting 6 9.2
2020-Feb-25 00:15 230 3 gusting 6 9.3
2020-Feb-25 00:10 233 4 gusting 8 9.3
2020-Feb-25 00:05 233 3 gusting 7 9.4
2020-Feb-25 00:00 219 3 gusting 7 9.5
2020-Feb-24 23:55 228 3 gusting 10 9.6
2020-Feb-24 23:50 221 3 gusting 6 9.9
2020-Feb-24 23:45 229 4 gusting 7 9.9
2020-Feb-24 23:40 231 3 gusting 8 9.8
2020-Feb-24 23:35 231 3 gusting 8 9.8
2020-Feb-24 23:30 238 4 gusting 9 9.7
2020-Feb-24 23:25 235 3 gusting 8 9.8
2020-Feb-24 23:20 232 3 gusting 6 9.7
2020-Feb-24 23:15 238 3 gusting 7 9.7
2020-Feb-24 23:10 239 4 gusting 7 9.8
2020-Feb-24 23:05 239 4 gusting 11 9.7
2020-Feb-24 23:00 236 4 gusting 8 9.7
2020-Feb-24 22:55 241 4 gusting 7 9.7
2020-Feb-24 22:50 235 4 gusting 9 9.7
2020-Feb-24 22:45 231 3 gusting 6 9.7
2020-Feb-24 22:40 231 2 gusting 4 9.7
2020-Feb-24 22:35 233 3 gusting 7 9.8
2020-Feb-24 22:30 222 3 gusting 10 9.9
2020-Feb-24 22:25 235 3 gusting 7 9.9
2020-Feb-24 22:20 238 3 gusting 5 9.8
2020-Feb-24 22:15 239 3 gusting 6 9.7
2020-Feb-24 22:10 243 2 gusting 5 9.7
2020-Feb-24 22:05 240 3 gusting 6 9.7
2020-Feb-24 22:00 244 3 gusting 8 9.9
2020-Feb-24 21:55 251 2 gusting 6 10.1
2020-Feb-24 21:50 241 3 gusting 5 10.5
2020-Feb-24 21:45 261 2 gusting 8 10.7
2020-Feb-24 21:40 254 3 gusting 8 10.9
2020-Feb-24 21:35 247 3 gusting 9 11.0
2020-Feb-24 21:30 254 2 gusting 7 11.2
2020-Feb-24 21:25 255 3 gusting 9 11.3
2020-Feb-24 21:20 259 2 gusting 7 11.5
2020-Feb-24 21:15 260 3 gusting 7 11.8
2020-Feb-24 21:10 263 3 gusting 7 12.1
2020-Feb-24 21:05 247 5 gusting 10 12.4
2020-Feb-24 21:00 257 4 gusting 10 12.6
2020-Feb-24 20:55 272 2 gusting 6 12.7
2020-Feb-24 20:50 276 3 gusting 9 13.0
2020-Feb-24 20:45 274 2 gusting 5 13.2
2020-Feb-24 20:40 263 3 gusting 10 13.3
2020-Feb-24 20:35 270 3 gusting 10 13.4
2020-Feb-24 20:30 255 4 gusting 8 13.5
2020-Feb-24 20:25 273 3 gusting 9 13.6
2020-Feb-24 20:20 260 2 gusting 11 13.1
2020-Feb-24 20:15 248 3 gusting 8 13.1
2020-Feb-24 20:10 237 2 gusting 6 12.7
2020-Feb-24 20:05 215 2 gusting 5 12.5
2020-Feb-24 20:00 217 2 gusting 5 12.4
2020-Feb-24 19:55 214 2 gusting 6 12.4
2020-Feb-24 19:50 217 2 gusting 5 12.3
2020-Feb-24 19:45 209 4 gusting 8 12.1
2020-Feb-24 19:40 204 4 gusting 7 11.9
2020-Feb-24 19:35 195 6 gusting 9 12.0
2020-Feb-24 19:30 200 4 gusting 9 12.0
2020-Feb-24 19:25 206 4 gusting 9 11.9
2020-Feb-24 19:20 205 4 gusting 8 12.1
2020-Feb-24 19:15 202 5 gusting 8 11.9
2020-Feb-24 19:10 200 5 gusting 9 12.0
2020-Feb-24 19:05 203 3 gusting 7 12.3
2020-Feb-24 19:00 198 5 gusting 9 12.1
2020-Feb-24 18:55 210 4 gusting 9 11.8
2020-Feb-24 18:50 206 5 gusting 10 11.7
2020-Feb-24 18:45 195 8 gusting 12 11.8
2020-Feb-24 18:40 195 6 gusting 11 12.1
2020-Feb-24 18:35 184 7 gusting 10 12.1
2020-Feb-24 18:30 181 7 gusting 10 12.6
2020-Feb-24 18:25 174 7 gusting 10 12.6
2020-Feb-24 18:20 168 6 gusting 9 13.0
2020-Feb-24 18:15 169 6 gusting 9 13.5
2020-Feb-24 18:10 163 5 gusting 7 13.3
2020-Feb-24 18:05 161 6 gusting 8 13.2
2020-Feb-24 18:00 161 5 gusting 8 13.1
2020-Feb-24 17:55 160 5 gusting 7 12.6
2020-Feb-24 17:50 156 6 gusting 7 12.3
2020-Feb-24 17:45 161 5 gusting 6 12.5
2020-Feb-24 17:40 160 5 gusting 7 12.6
2020-Feb-24 17:35 155 5 gusting 6 13.0
2020-Feb-24 17:30 164 5 gusting 7 13.0
2020-Feb-24 17:25 159 5 gusting 6 12.8
2020-Feb-24 17:20 165 5 gusting 6 12.9
2020-Feb-24 17:15 174 6 gusting 7 12.8
2020-Feb-24 17:10 169 5 gusting 8 12.5
2020-Feb-24 17:05 162 5 gusting 7 12.5
2020-Feb-24 17:00 162 5 gusting 7 12.4